星链-31050 (STARLINK-31050 )

导读

STARLINK-31050是美国太空探索技术公司星链星座的一员,于2023年12月8日发射入轨,归入低地球轨道运行。星链项目旨在搭建全球卫星互联网星座,该卫星承担为地面偏远区域提供高速宽带网络接入服务的任务,是美国推进近地轨道大规模卫星组网布局的重要组成部分。

基本信息
目录编号:
58546
目录名称:
STARLINK-31050
国际标识:
2023-192R
轨道中心:
EARTH
卫星名称:
星链-31050
卫星全名:
星链-31050 (STARLINK-31050 )
卫星状态:
在轨 (已飞行1008 天)
发射日期:
2023-12-08 UTC
国别 :
美国 (US)
星等 :
--
该卫星已列入 空间交会检测服务 Space Conjunction Data Service (SCDS) ,当前飞行风险评估等级: 无高风险
轨道信息
数据来源 国际轨道数据
星历时间: 2026-09-11T10:12:31+0800
17小时前
查看轨道信息
半长轴: 6840.87km
偏心率: 0.000118
轨道倾角: 53.160°
近地点辐角 92.156°
升交点赤经 277.855°
平近点角 267.957°
近地点: 461.925km
远地点: 463.541km
周期: 93.848分钟
每日圈数: 15.343902
详细信息
固有亮度:
5
最大亮度:
0.3
卫星平台:
Starlink v2.0 mini
覆盖范围:
全球
运营商:
太空探索技术公司
运营商所在国:
美国
制造商(研发单位):
太空探索技术公司
制造商所在国:
美国
使用方式:
暂无
卫星简介
星链(Starlink)计划是由太空探索技术公司(SpaceX)提出的一个巨型低轨卫星互联网星座项目,计划在2019年至2024年间在太空搭建由约1.2万颗卫星组成的“星链”网络,其中1584颗将部署在地球上空550千米处的近地轨道,并从2020年开始工作。该卫星仍在工作。
2D轨道图
3D轨道图
轨道高度分析图
轨道倾角分析图
轨道综合分析图
查看轨道综合分析图
交会数据列表
事件ID 空间交会对象 最接近时刻(TCA) 交会距离 交会风险概率(CRP) 交会风险指数(CRI) 操作
CDM_260913-043105-854606-833421
2026-09-13T
04:31:13+0000
0.946 km
远距离
1.982325E-5 中风险 0.61
CDM_260913-130705-854606-833421
2026-09-13T
13:07:04+0000
1.066 km
极远距离
1.309647E-5 中风险 0.57
CDM_260913-144005-854606-833421
2026-09-13T
14:40:52+0000
2.766 km
极远距离
9.875246E-7 极低风险 0.35
CDM_260913-060505-854606-833421
2026-09-13T
06:05:01+0000
2.873 km
极远距离
9.412668E-7 极低风险 0.34
与全量物体交会距离演化趋势
与全量物体交会风险概率演化趋势